Regional Weather Roundup
Issued by NWS

Home | Current Version | Previous Version | Graphics & Text | Print | Product List | Glossary On
Versions: 1 2 3 4 5 6 7 8 9 10 11 12 13 14 15 16 17 18 19 20 21 22 23 24 25 26 27 28 29 30 31 32 33 34 35 36 37 38 39 40 41 42 43 44 45 46 47 48 49 50
000
ASUS43 KFSD 252310
RWRSD

WEATHER ROUNDUP FOR SOUTH DAKOTA
NATIONAL WEATHER SERVICE SIOUX FALLS SD
600 PM CDT SAT OCT 25 2014

NOTE: "FAIR" INDICATES FEW OR NO CLOUDS BELOW 12,000 FEET WITH NO
SIGNIFICANT WEATHER AND/OR OBSTRUCTIONS TO VISIBILITY.


SDZ001>005-009-010-012>017-260000-
NORTHWEST AND NORTH CENTRAL SOUTH DAKOTA

CITY           SKY/WX    TMP DP  RH WIND       PRES   REMARKS
BUFFALO          N/A     64  32  30 SE17G25   29.88F
FAITH            N/A     63  32  31 SE12      30.00F
MOBRIDGE       CLEAR     65  31  28 SE6       30.02F
$$

SDZ012>016-024>037-041>051-057-063-072>074-260000-
SOUTHWEST AND SOUTH CENTRAL SOUTH DAKOTA

CITY           SKY/WX    TMP DP  RH WIND       PRES   REMARKS
RAPID CTY ARPT CLEAR     64  38  38 S12       29.97F
PIERRE         CLEAR     65  30  27 E10       30.02F
CUSTER         CLEAR     64  32  30 S5        30.06F
ELLSWORTH AFB  CLEAR     64  39  39 S15       29.96F
PHILIP         CLEAR     67  32  27 SE8       30.00F
PINE RIDGE     CLEAR     68  41  37 SE9       29.99F
SPEARFISH      FAIR      64  41  42 E5        29.96F
WINNER         FAIR      68  30  24 SE12      30.03F
$$

SDZ004>011-016>023-039-040-260000-
NORTHEAST SOUTH DAKOTA

CITY           SKY/WX    TMP DP  RH WIND       PRES   REMARKS
ABERDEEN       CLEAR     64  29  26 CALM      30.08F
WATERTOWN      CLEAR     57  31  37 N6        30.09S
SISSETON         N/A     59  27  29 N5        30.07F
$$

SDZ017-020-022-023-036>040-048>070-260000-
SOUTHEAST SOUTH DAKOTA

CITY           SKY/WX    TMP DP  RH WIND       PRES   REMARKS
SIOUX FALLS    CLEAR     59  39  47 NE7       30.07F
HURON          CLEAR     64  29  26 NE6       30.07F
CHAMBERLAIN    CLEAR     64  29  26 E5        30.05F
MITCHELL       CLEAR     64  36  35 NE5       30.07F
YANKTON        CLEAR     66  34  30 E5        30.06F
$$

ABBREVIATIONS USED IN REMARKS
   TC - TEMPERATURE IN CELSIUS
  WCI - WIND CHILL INDEX
   HX - HEAT INDEX
  VSB - VISIBILITY




USA.gov is the U.S. government's official web portal to all federal, state and local government web resources and services.